This demonstration page uses our WeatherBlox Daily Observations layout. Learn more.

Left ArrowRight Arrow

Hourly Observations for March 29, 2017

Temp ( °F °C ) Dew Point ( °F °C ) Humidity (%) Winds ( mph kmh ) Pressure ( in mb ) Visibility ( mi km ) Precip ( " mm )
12:53 am 00:53 Cloudy 52 11.1 47 8.3 83 83 NNE 8 13 30.16 1021 9 14 N/A
1:53 am 01:53 Cloudy 51 10.6 46 7.8 83 83 NE 10 17 30.15 1021 10 16 N/A
2:53 am 02:53 Cloudy 50 10 45 7.2 83 83 ENE 8 13 30.16 1021 10 16 N/A
3:53 am 03:53 Cloudy 49 9.4 45 7.2 86 86 NE 10 17 30.15 1021 10 16 N/A
4:00 am 04:00 Cloudy 49 9.4 45 7.2 86 86 ENE 8 13 30.15 1021 10 16 N/A
4:53 am 04:53 Cloudy 47 8.3 43 6.1 86 86 E 12 19 30.17 1022 10 16 N/A
5:20 am 05:20 Cloudy 47 8.3 41 5 80 80 E 12 19 30.15 1021 10 16 N/A
5:53 am 05:53 Mostly Cloudy 46 7.8 39 3.9 77 77 ENE 10 17 30.17 1022 10 16 N/A
6:53 am 06:53 Cloudy 45 7.2 39 3.9 80 80 E 10 17 30.19 1023 10 16 N/A
7:53 am 07:53 Cloudy 44 6.7 39 3.9 83 83 E 5 7 30.19 1023 10 16 N/A
8:53 am 08:53 Mostly Cloudy 45 7.2 39 3.9 80 80 NE 12 19 30.21 1023 10 16 N/A
9:46 am 09:46 Partly Cloudy 45 7.2 38 3.3 77 77 ENE 9 15 30.24 1024 10 16 N/A
9:53 am 09:53 Partly Cloudy 46 7.8 39 3.9 77 77 E 13 20 30.23 1024 10 16 N/A
10:16 am 10:16 Mostly Cloudy 44 6.7 38 3.3 79 79 E 10 17 30.21 1023 10 16 N/A
10:53 am 10:53 Cloudy 44 6.7 39 3.9 83 83 E 9 15 30.23 1024 10 16 N/A
11:53 am 11:53 Cloudy 47 8.3 42 5.6 83 83 E 10 17 30.22 1023 10 16 N/A
12:45 pm 12:45 Cloudy 49 9.4 42 5.6 77 77 E 9 15 30.21 1023 10 16 N/A
12:53 pm 12:53 Cloudy 50 10 43 6.1 77 77 E 10 17 30.22 1023 10 16 N/A
1:53 pm 13:53 Cloudy 52 11.1 44 6.7 75 75 ENE 7 11 30.21 1023 10 16 N/A
2:53 pm 14:53 Mostly Cloudy 54 12.2 44 6.7 69 69 ESE 9 15 30.19 1022 10 16 N/A
3:06 pm 15:06 Partly Cloudy 55 12.8 45 7.2 69 69 VRB 5 7 30.18 1022 10 16 N/A
3:53 pm 15:53 Mostly Sunny 56 13.3 46 7.8 70 70 E 12 19 30.14 1021 10 16 N/A
4:53 pm 16:53 Sunny 57 13.9 45 7.2 64 64 ESE 9 15 30.14 1021 10 16 N/A
5:53 pm 17:53 Sunny 57 13.9 45 7.2 64 64 E 9 15 30.12 1020 10 16 N/A
6:53 pm 18:53 Sunny 58 14.4 46 7.8 65 65 E 12 19 30.09 1019 10 16 N/A
7:53 pm 19:53 Sunny 56 13.3 44 6.7 65 65 E 9 15 30.10 1019 10 16 N/A
8:53 pm 20:53 Mostly Cloudy 53 11.7 43 6.1 69 69 E 5 7 30.10 1019 10 16 N/A
9:53 pm 21:53 Cloudy 53 11.7 44 6.7 72 72 E 6 9 30.09 1019 10 16 N/A
10:53 pm 22:53 Clear 53 11.7 43 6.1 69 69 ESE 8 13 30.04 1017 10 16 N/A
11:53 pm 23:53 Clear 53 11.7 44 6.7 72 72 E 8 13 30.04 1017 10 16 N/A

Powered by AerisWeather